Weather History for KCAD - March, 2013

Change the Weather History Date:

Sunday, March 3, 2013

  Actual Average Record
Temperature  
Mean Temperature 12 °F -  
Max Temperature 23 °F 32 °F 84 °F (1999)
Min Temperature 1 °F 12 °F -24 °F (2014)
Degree Days  
Heating Degree Days 53    
Moisture  
Dew Point 8 °F    
Average Humidity 74    
Maximum Humidity 86    
Minimum Humidity 59    
Precipitation  
Precipitation 0.00 in - - ()
Sea Level Pressure  
Sea Level Pressure 30.00 in    
Wind  
Wind Speed 5 mph (NNW)    
Max Wind Speed 13 mph    
Max Gust Speed 16 mph    
Visibility 10 miles    
Events Snow    
Averages and records for this station are not official NWS values.
T = Trace of Precipitation, MM = Missing Value Source: NWS Daily Summary

Daily Weather History Graph

Daily Weather History Graph

Search for Another Location

Airport or City:

Trip Planner

Search our weather history database for the weather conditions in past years. The results will help you decide how hot, cold, wet, or windy it might be!

Date:

Astronomy

Mar. 03, 2013 Rise Set
Actual Time 7:14 AM EST 6:32 PM EST
Civil Twilight 6:45 AM EST 7:01 PM EST
Nautical Twilight 6:12 AM EST 7:35 PM EST
Astronomical Twilight 5:38 AM EST 8:09 PM EST
Moon 12:24 AM EST (3/3) 10:14 AM EST (3/3)
Length of Visible Light 12h 15m
Length of Day
11h 17m
Waning Gibbous, 64% of the Moon is Illuminated
Mar 3
Waning Gibbous
Mar 4
Last Quarter
Mar 11
New
Mar 19
First Quarter
Mar 27
Full

Hourly Weather History & Observations

Time (EST) Temp. Windchill Dew Point Humidity Pressure Visibility Wind Dir Wind Speed Gust Speed Precip Events Conditions
12:15 AM 19.0 °F 10.0 °F 11.7 °F 73% 30.03 in 10.0 mi North 6.9 mph - N/A   Overcast
12:34 AM 18.9 °F 10.8 °F 11.1 °F 72% 30.03 in 10.0 mi North 5.8 mph - N/A   Overcast
12:55 AM 18.9 °F 10.8 °F 11.3 °F 72% 30.03 in 10.0 mi North 5.8 mph - N/A   Overcast
1:15 AM 18.9 °F 10.8 °F 11.1 °F 72% 30.03 in 10.0 mi NNW 5.8 mph - N/A   Overcast
1:34 AM 18.9 °F 9.8 °F 11.1 °F 72% 30.03 in 10.0 mi North 6.9 mph - N/A   Overcast
1:55 AM 18.9 °F - 11.1 °F 72% 30.03 in 10.0 mi Calm Calm - N/A   Overcast
2:34 AM 18.9 °F 10.8 °F 11.5 °F 73% 30.02 in 10.0 mi NW 5.8 mph - N/A   Overcast
2:55 AM 18.9 °F - 11.3 °F 72% 30.01 in 10.0 mi Calm Calm - N/A Snow Light Snow
3:15 AM 16.9 °F - 9.7 °F 73% 30.01 in 10.0 mi Calm Calm - N/A Snow Light Snow
3:34 AM 16.3 °F - 10.4 °F 77% 30.00 in 10.0 mi Calm Calm - N/A   Scattered Clouds
4:15 AM 11.3 °F - 7.0 °F 83% 29.99 in 10.0 mi Calm Calm - N/A   Clear
4:34 AM 11.1 °F - 6.1 °F 80% 29.99 in 10.0 mi Calm Calm - N/A   Clear
4:55 AM 8.6 °F - 4.3 °F 83% 29.99 in 10.0 mi Calm Calm - N/A   Clear
5:14 AM 5.0 °F -2.1 °F 0.1 °F 80% 29.99 in 10.0 mi West 3.5 mph - N/A   Clear
5:35 AM 3.7 °F - -1.1 °F 80% 29.99 in 10.0 mi Calm Calm - N/A   Clear
5:55 AM 3.6 °F - -1.8 °F 78% 29.99 in 10.0 mi Calm Calm - N/A   Clear
6:14 AM 3.0 °F - -1.7 °F 81% 29.99 in 10.0 mi Calm Calm - N/A   Clear
6:35 AM 2.3 °F - -3.5 °F 77% 29.99 in 10.0 mi Calm Calm - N/A   Clear
6:55 AM 1.4 °F - -4.7 °F 76% 30.00 in 10.0 mi Calm Calm - N/A   Clear
7:15 AM 1.9 °F - -4.9 °F 73% 30.00 in 10.0 mi Calm Calm - N/A   Clear
7:35 AM 2.3 °F - -5.3 °F 71% 30.01 in 10.0 mi Calm Calm - N/A   Mostly Cloudy
7:55 AM 3.7 °F - -2.6 °F 75% 30.01 in 7.0 mi Calm Calm - N/A Snow Light Snow
8:14 AM 5.2 °F - -0.2 °F 78% 30.01 in 7.0 mi Calm Calm - N/A Snow Light Snow
8:35 AM 12.7 °F 6.7 °F 7.9 °F 81% 30.01 in 7.0 mi NW 3.5 mph - N/A Snow Light Snow
8:55 AM 17.4 °F 8.0 °F 11.7 °F 78% 30.01 in 5.0 mi NNW 6.9 mph - N/A Snow Light Snow
9:14 AM 18.9 °F 7.2 °F 12.2 °F 75% 30.01 in 7.0 mi NNW 10.4 mph - N/A Snow Light Snow
9:35 AM 18.9 °F 8.0 °F 12.0 °F 75% 30.00 in 10.0 mi NNW 9.2 mph - N/A Snow Light Snow
9:55 AM 18.9 °F 6.5 °F 11.8 °F 74% 30.01 in 10.0 mi NNW 11.5 mph 16.1 mph N/A Snow Light Snow
10:14 AM 18.9 °F 7.2 °F 11.8 °F 74% 30.01 in 10.0 mi NW 10.4 mph 16.1 mph N/A Snow Light Snow
10:35 AM 19.0 °F 8.2 °F 12.0 °F 74% 30.01 in 10.0 mi NNW 9.2 mph 16.1 mph N/A Snow Light Snow
10:55 AM 19.6 °F 7.4 °F 12.2 °F 73% 30.01 in 10.0 mi NW 11.5 mph - N/A Snow Light Snow
11:14 AM 21.0 °F 11.4 °F 13.5 °F 73% 30.01 in 10.0 mi NNW 8.1 mph - N/A Snow Light Snow
11:35 AM 21.2 °F 11.7 °F 13.6 °F 73% 30.01 in 10.0 mi North 8.1 mph - N/A Snow Light Snow
11:55 AM 21.2 °F 9.5 °F 13.8 °F 73% 30.00 in 10.0 mi NW 11.5 mph - N/A Snow Light Snow
12:14 PM 21.2 °F 9.5 °F 13.8 °F 73% 30.00 in 10.0 mi NW 11.5 mph 16.1 mph N/A Snow Light Snow
12:35 PM 21.2 °F 10.9 °F 13.8 °F 73% 30.00 in 10.0 mi NNW 9.2 mph - N/A Snow Light Snow
12:55 PM 21.2 °F 11.7 °F 13.6 °F 73% 29.99 in 10.0 mi North 8.1 mph - N/A   Overcast
1:15 PM 21.7 °F 12.3 °F 13.1 °F 69% 29.99 in 10.0 mi North 8.1 mph - N/A Snow Light Snow
1:35 PM 22.6 °F 13.4 °F 14.0 °F 69% 29.98 in 10.0 mi NW 8.1 mph - N/A   Overcast
1:54 PM 22.6 °F 13.4 °F 13.3 °F 67% 29.98 in 10.0 mi NW 8.1 mph - N/A   Overcast
2:15 PM 23.4 °F 12.2 °F 13.6 °F 66% 29.98 in 10.0 mi NNW 11.5 mph - N/A   Overcast
2:54 PM 23.0 °F 13.1 °F 12.9 °F 65% 29.97 in 10.0 mi WNW 9.2 mph - N/A   Mostly Cloudy
3:15 PM 23.9 °F 14.2 °F 13.1 °F 63% 29.97 in 10.0 mi NW 9.2 mph - N/A   Mostly Cloudy
3:34 PM 23.9 °F 15.0 °F 12.6 °F 62% 29.97 in 10.0 mi NNW 8.1 mph - N/A   Scattered Clouds
3:55 PM 23.9 °F 15.0 °F 12.2 °F 61% 29.97 in 10.0 mi North 8.1 mph - N/A   Mostly Cloudy
4:15 PM 23.9 °F 14.2 °F 11.5 °F 59% 29.97 in 10.0 mi NNW 9.2 mph - N/A   Mostly Cloudy
4:55 PM 22.6 °F 12.6 °F 11.1 °F 61% 29.98 in 10.0 mi WNW 9.2 mph - N/A   Scattered Clouds
5:15 PM 22.6 °F 11.9 °F 11.3 °F 62% 29.98 in 10.0 mi NW 10.4 mph - N/A   Mostly Cloudy
5:34 PM 21.6 °F 9.9 °F 10.9 °F 64% 29.99 in 10.0 mi NW 11.5 mph 16.1 mph N/A   Mostly Cloudy
5:55 PM 21.2 °F 8.9 °F 11.3 °F 66% 29.99 in 10.0 mi WNW 12.7 mph - N/A   Mostly Cloudy
6:15 PM 21.2 °F 11.7 °F 11.3 °F 66% 30.00 in 10.0 mi NW 8.1 mph - N/A   Mostly Cloudy
6:34 PM 21.2 °F 12.6 °F 11.3 °F 66% 30.00 in 10.0 mi North 6.9 mph - N/A   Overcast
6:55 PM 21.2 °F 12.6 °F 12.0 °F 68% 30.00 in 10.0 mi NW 6.9 mph - N/A   Overcast
7:15 PM 19.2 °F 10.2 °F 10.2 °F 68% 30.01 in 10.0 mi NW 6.9 mph - N/A   Overcast
7:34 PM 18.9 °F 12.1 °F 10.0 °F 69% 30.01 in 10.0 mi NW 4.6 mph - N/A   Mostly Cloudy
7:55 PM 18.0 °F 12.7 °F 9.9 °F 71% 30.01 in 10.0 mi NW 3.5 mph - N/A   Scattered Clouds
8:15 PM 16.3 °F - 9.3 °F 74% 30.02 in 10.0 mi Calm Calm - N/A   Clear
8:34 PM 16.3 °F - 10.8 °F 79% 30.01 in 10.0 mi Calm Calm - N/A   Clear
8:55 PM 13.1 °F - 8.1 °F 80% 30.02 in 10.0 mi Calm Calm - N/A   Clear
9:15 PM 11.3 °F - 7.0 °F 83% 30.02 in 10.0 mi Calm Calm - N/A   Clear
9:35 PM 8.6 °F - 5.0 °F 85% 30.02 in 10.0 mi Calm Calm - N/A   Clear
9:55 PM 7.5 °F - 4.1 °F 86% 30.02 in 10.0 mi Calm Calm - N/A   Clear
10:14 PM 5.7 °F - 1.6 °F 83% 30.02 in 10.0 mi Calm Calm - N/A   Clear
10:35 PM 4.8 °F - 0.3 °F 82% 30.01 in 10.0 mi Calm Calm - N/A   Clear
10:55 PM 3.6 °F - -1.3 °F 80% 30.01 in 10.0 mi Calm Calm - N/A   Clear
11:14 PM 2.8 °F - -1.8 °F 81% 30.02 in 10.0 mi Calm Calm - N/A   Clear
11:35 PM 3.6 °F - -1.3 °F 80% 30.02 in 7.0 mi Calm Calm - N/A Snow Light Snow
11:55 PM 3.4 °F - -1.7 °F 80% 30.02 in 10.0 mi Calm Calm - N/A Snow Light Snow